Time,TemperatureF,DewpointF,PressureIn,WindDirection,WindDirectionDegrees,WindSpeedMPH,WindSpeedGustMPH,Humidity,HourlyPrecipIn,Conditions,Clouds,dailyrainin,SoftwareType,DateUTC
2013-08-15 00:02:00,55.9,54.9,21.86,SW,225,1.0,1.0,96,0.00,,,0.00,meteohub,2013-08-15 05:02:00,
2013-08-15 00:07:00,55.9,55.0,21.85,SW,225,0.0,1.0,97,0.00,,,0.00,meteohub,2013-08-15 05:07:00,
2013-08-15 00:12:00,56.1,55.2,21.85,North,0,0.0,1.0,97,0.00,,,0.00,meteohub,2013-08-15 05:12:00,
2013-08-15 00:17:00,56.3,55.4,21.85,West,270,2.0,2.0,97,0.00,,,0.00,meteohub,2013-08-15 05:17:00,
2013-08-15 00:22:00,56.5,55.6,21.85,West,270,0.0,2.0,97,0.00,,,0.00,meteohub,2013-08-15 05:22:00,
2013-08-15 00:27:00,56.5,55.6,21.86,North,0,0.0,2.0,97,0.00,,,0.00,meteohub,2013-08-15 05:27:00,
2013-08-15 00:32:00,56.7,55.8,21.86,West,270,0.0,2.0,97,0.00,,,0.00,meteohub,2013-08-15 05:32:00,
2013-08-15 00:37:00,56.8,55.9,21.86,South,180,0.0,1.0,97,0.00,,,0.00,meteohub,2013-08-15 05:37:00,
2013-08-15 00:42:00,56.8,55.9,21.86,SW,225,0.0,2.0,97,0.00,,,0.00,meteohub,2013-08-15 05:42:00,
2013-08-15 00:47:00,56.7,55.8,21.86,West,270,0.0,2.0,97,0.00,,,0.00,meteohub,2013-08-15 05:47:00,
2013-08-15 00:52:00,56.7,55.8,21.86,West,270,1.0,2.0,97,0.00,,,0.00,meteohub,2013-08-15 05:52:00,
2013-08-15 00:57:00,56.8,55.9,21.85,South,180,1.0,2.0,97,0.00,,,0.00,meteohub,2013-08-15 05:57:00,
2013-08-15 01:02:00,56.8,55.9,21.85,South,180,1.0,1.0,97,0.00,,,0.00,meteohub,2013-08-15 06:02:00,
2013-08-15 01:07:00,56.8,55.9,21.85,South,180,1.0,1.0,97,0.00,,,0.00,meteohub,2013-08-15 06:07:00,
2013-08-15 01:12:00,56.8,55.8,21.86,West,270,2.0,2.0,96,0.00,,,0.00,meteohub,2013-08-15 06:12:00,
2013-08-15 01:17:00,56.8,55.8,21.85,NW,315,0.0,2.0,96,0.00,,,0.00,meteohub,2013-08-15 06:17:00,
2013-08-15 01:22:00,56.8,55.8,21.86,West,270,1.0,2.0,96,0.00,,,0.00,meteohub,2013-08-15 06:22:00,
2013-08-15 01:27:00,57.0,55.9,21.86,SE,135,0.0,2.0,96,0.00,,,0.00,meteohub,2013-08-15 06:27:00,
2013-08-15 01:32:00,56.8,55.8,21.85,NE,45,0.0,2.0,96,0.00,,,0.00,meteohub,2013-08-15 06:32:00,
2013-08-15 01:37:00,56.8,55.8,21.86,West,270,2.0,2.0,96,0.00,,,0.00,meteohub,2013-08-15 06:37:00,
2013-08-15 01:42:00,57.0,56.1,21.86,NW,315,1.0,2.0,97,0.00,,,0.00,meteohub,2013-08-15 06:42:00,
2013-08-15 01:47:00,57.0,56.1,21.86,South,180,1.0,2.0,97,0.00,,,0.00,meteohub,2013-08-15 06:47:00,
2013-08-15 01:52:00,57.0,55.9,21.86,West,270,0.0,2.0,96,0.00,,,0.00,meteohub,2013-08-15 06:52:00,
2013-08-15 01:57:00,57.0,55.9,21.86,West,270,0.0,1.0,96,0.00,,,0.00,meteohub,2013-08-15 06:57:00,
2013-08-15 02:02:00,57.2,55.8,21.86,West,270,0.0,1.0,95,0.00,,,0.00,meteohub,2013-08-15 07:02:00,
2013-08-15 02:07:00,57.2,55.8,21.86,NE,45,0.0,1.0,95,0.00,,,0.00,meteohub,2013-08-15 07:07:00,
2013-08-15 02:12:00,57.2,55.8,21.86,SW,225,2.0,2.0,95,0.00,,,0.00,meteohub,2013-08-15 07:12:00,
2013-08-15 02:17:00,57.2,55.8,21.86,SW,225,0.0,2.0,95,0.00,,,0.00,meteohub,2013-08-15 07:17:00,
2013-08-15 02:22:00,57.2,55.8,21.86,East,90,1.0,2.0,95,0.00,,,0.00,meteohub,2013-08-15 07:22:00,
2013-08-15 02:27:00,57.0,55.9,21.86,West,270,1.0,2.0,96,0.00,,,0.00,meteohub,2013-08-15 07:27:00,
2013-08-15 02:32:00,57.0,55.9,21.87,NW,315,2.0,2.0,96,0.00,,,0.00,meteohub,2013-08-15 07:32:00,
2013-08-15 02:37:00,57.2,56.1,21.87,West,270,1.0,2.0,96,0.00,,,0.00,meteohub,2013-08-15 07:37:00,
2013-08-15 02:42:00,57.2,56.1,21.86,SE,135,2.0,2.0,96,0.00,,,0.00,meteohub,2013-08-15 07:42:00,
2013-08-15 02:47:00,57.2,56.1,21.86,NW,315,0.0,2.0,96,0.00,,,0.00,meteohub,2013-08-15 07:47:00,
2013-08-15 02:52:00,57.2,56.1,21.86,West,270,2.0,2.0,96,0.00,,,0.00,meteohub,2013-08-15 07:52:00,
2013-08-15 02:57:00,57.2,56.1,21.86,SW,225,0.0,2.0,96,0.00,,,0.00,meteohub,2013-08-15 07:57:00,
2013-08-15 03:02:00,57.2,56.1,21.86,NE,45,0.0,2.0,96,0.00,,,0.00,meteohub,2013-08-15 08:02:00,
2013-08-15 03:07:00,57.2,56.1,21.86,NE,45,0.0,2.0,96,0.00,,,0.00,meteohub,2013-08-15 08:07:00,
2013-08-15 03:12:00,57.0,56.1,21.86,East,90,0.0,1.0,97,0.00,,,0.00,meteohub,2013-08-15 08:12:00,
2013-08-15 03:17:00,57.0,56.1,21.86,West,270,0.0,1.0,97,0.00,,,0.00,meteohub,2013-08-15 08:17:00,
2013-08-15 03:22:00,57.2,56.1,21.86,SW,225,0.0,1.0,96,0.00,,,0.00,meteohub,2013-08-15 08:22:00,
2013-08-15 03:27:00,57.0,56.1,21.86,West,270,0.0,1.0,97,0.00,,,0.00,meteohub,2013-08-15 08:27:00,
2013-08-15 03:32:00,57.0,56.1,21.86,NW,315,2.0,2.0,97,0.00,,,0.00,meteohub,2013-08-15 08:32:00,
2013-08-15 03:37:00,57.0,56.1,21.86,NE,45,2.0,2.0,97,0.00,,,0.00,meteohub,2013-08-15 08:37:00,
2013-08-15 03:42:00,57.0,56.1,21.86,NW,315,1.0,2.0,97,0.00,,,0.00,meteohub,2013-08-15 08:42:00,
2013-08-15 03:47:00,57.2,56.1,21.86,West,270,0.0,2.0,96,0.00,,,0.00,meteohub,2013-08-15 08:47:00,
2013-08-15 03:52:00,57.2,56.1,21.86,West,270,1.0,2.0,96,0.00,,,0.00,meteohub,2013-08-15 08:52:00,
2013-08-15 03:57:00,57.2,56.1,21.86,NW,315,1.0,2.0,96,0.00,,,0.00,meteohub,2013-08-15 08:57:00,
2013-08-15 04:02:00,57.2,56.1,21.86,West,270,2.0,2.0,96,0.00,,,0.00,meteohub,2013-08-15 09:02:00,
2013-08-15 04:07:00,57.2,56.1,21.86,NE,45,2.0,2.0,96,0.00,,,0.00,meteohub,2013-08-15 09:07:00,
2013-08-15 04:12:00,57.4,56.3,21.86,NE,45,2.0,3.0,96,0.00,,,0.00,meteohub,2013-08-15 09:12:00,
2013-08-15 04:17:00,57.6,56.5,21.86,North,0,0.0,3.0,96,0.00,,,0.00,meteohub,2013-08-15 09:17:00,
2013-08-15 04:22:00,57.6,56.5,21.86,West,270,2.0,3.0,96,0.00,,,0.00,meteohub,2013-08-15 09:22:00,
2013-08-15 04:27:00,57.6,56.5,21.86,West,270,2.0,2.0,96,0.00,,,0.00,meteohub,2013-08-15 09:27:00,
2013-08-15 04:32:00,57.7,56.7,21.86,West,270,1.0,2.0,96,0.00,,,0.00,meteohub,2013-08-15 09:32:00,
2013-08-15 04:37:00,57.7,56.7,21.87,NE,45,0.0,2.0,96,0.00,,,0.00,meteohub,2013-08-15 09:37:00,
2013-08-15 04:42:00,57.7,56.7,21.87,West,270,2.0,2.0,96,0.00,,,0.00,meteohub,2013-08-15 09:42:00,
2013-08-15 04:47:00,57.9,56.8,21.86,SE,135,2.0,2.0,96,0.00,,,0.00,meteohub,2013-08-15 09:47:00,
2013-08-15 04:52:00,57.9,56.8,21.86,SE,135,0.0,2.0,96,0.00,,,0.00,meteohub,2013-08-15 09:52:00,
2013-08-15 04:57:00,57.9,56.8,21.86,West,270,2.0,2.0,96,0.00,,,0.00,meteohub,2013-08-15 09:57:00,
2013-08-15 05:02:00,57.7,56.7,21.86,WNW,293,1.0,2.0,96,0.00,,,0.00,meteohub,2013-08-15 10:02:00,
2013-08-15 05:07:00,57.7,56.7,21.86,WNW,293,1.0,2.0,96,0.00,,,0.00,meteohub,2013-08-15 10:07:00,
2013-08-15 05:12:00,57.7,56.7,21.86,West,270,2.0,3.0,96,0.00,,,0.00,meteohub,2013-08-15 10:12:00,
2013-08-15 05:17:00,57.9,56.8,21.86,North,0,1.0,3.0,96,0.00,,,0.00,meteohub,2013-08-15 10:17:00,
2013-08-15 05:22:00,58.1,57.0,21.86,NW,315,0.0,3.0,96,0.00,,,0.00,meteohub,2013-08-15 10:22:00,
2013-08-15 05:27:00,57.9,56.5,21.86,West,270,0.0,3.0,95,0.00,,,0.00,meteohub,2013-08-15 10:27:00,
2013-08-15 05:32:00,57.9,56.5,21.86,West,270,2.0,2.0,95,0.00,,,0.00,meteohub,2013-08-15 10:32:00,
2013-08-15 05:37:00,57.9,56.5,21.87,West,270,1.0,2.0,95,0.00,,,0.00,meteohub,2013-08-15 10:37:00,
2013-08-15 05:42:00,57.7,56.3,21.86,West,270,0.0,2.0,95,0.00,,,0.00,meteohub,2013-08-15 10:42:00,
2013-08-15 05:47:00,57.6,56.1,21.86,NE,45,1.0,2.0,95,0.00,,,0.00,meteohub,2013-08-15 10:47:00,
2013-08-15 05:52:00,57.6,56.1,21.87,NE,45,2.0,2.0,95,0.00,,,0.00,meteohub,2013-08-15 10:52:00,
2013-08-15 05:57:00,57.6,56.1,21.86,NE,45,0.0,2.0,95,0.00,,,0.00,meteohub,2013-08-15 10:57:00,
2013-08-15 06:02:00,57.6,56.1,21.86,West,270,0.0,2.0,95,0.00,,,0.00,meteohub,2013-08-15 11:02:00,
2013-08-15 06:07:00,57.6,56.1,21.86,West,270,0.0,2.0,95,0.00,,,0.00,meteohub,2013-08-15 11:07:00,
2013-08-15 06:12:00,57.4,56.3,21.86,West,270,0.0,2.0,96,0.00,,,0.00,meteohub,2013-08-15 11:12:00,
2013-08-15 06:17:00,57.4,56.3,21.86,NW,315,1.0,2.0,96,0.00,,,0.00,meteohub,2013-08-15 11:17:00,
2013-08-15 06:22:00,57.2,56.1,21.86,NE,45,0.0,1.0,96,0.00,,,0.00,meteohub,2013-08-15 11:22:00,
2013-08-15 06:27:00,57.0,56.1,21.86,West,270,2.0,2.0,97,0.00,,,0.00,meteohub,2013-08-15 11:27:00,
2013-08-15 06:32:00,57.0,56.1,21.86,North,0,2.0,2.0,97,0.00,,,0.00,meteohub,2013-08-15 11:32:00,
2013-08-15 06:37:00,57.0,56.1,21.86,NW,315,2.0,2.0,97,0.00,,,0.00,meteohub,2013-08-15 11:37:00,
2013-08-15 06:42:00,57.0,56.1,21.86,West,270,0.0,2.0,97,0.00,,,0.00,meteohub,2013-08-15 11:42:00,
2013-08-15 06:47:00,57.2,56.3,21.85,West,270,0.0,2.0,97,0.00,,,0.00,meteohub,2013-08-15 11:47:00,
2013-08-15 06:52:00,57.4,56.5,21.86,West,270,0.0,2.0,97,0.00,,,0.00,meteohub,2013-08-15 11:52:00,
2013-08-15 06:57:00,57.7,56.8,21.85,NW,315,2.0,0.0,97,0.00,,,0.00,meteohub,2013-08-15 11:57:00,
2013-08-15 07:02:00,57.9,57.0,21.85,NW,315,2.0,2.0,97,0.00,,,0.00,meteohub,2013-08-15 12:02:00,
2013-08-15 07:07:00,57.9,57.0,21.85,NW,315,2.0,2.0,97,0.00,,,0.00,meteohub,2013-08-15 12:07:00,
2013-08-15 07:12:00,58.8,57.9,21.85,SW,225,1.0,2.0,97,0.00,,,0.00,meteohub,2013-08-15 12:12:00,
2013-08-15 07:17:00,59.5,58.5,21.85,NW,315,2.0,2.0,96,0.00,,,0.00,meteohub,2013-08-15 12:17:00,
2013-08-15 07:22:00,60.3,58.8,21.85,East,90,3.0,3.0,95,0.00,,,0.00,meteohub,2013-08-15 12:22:00,
2013-08-15 07:26:00,60.6,58.6,21.85,NW,315,0.0,3.0,93,0.00,,,0.00,meteohub,2013-08-15 12:26:00,
2013-08-15 07:32:00,61.3,58.6,21.84,NW,315,0.0,3.0,91,0.00,,,0.00,meteohub,2013-08-15 12:32:00,
2013-08-15 07:37:00,61.9,59.0,21.85,West,270,2.0,3.0,90,0.00,,,0.00,meteohub,2013-08-15 12:37:00,
2013-08-15 07:42:00,61.9,58.3,21.85,NW,315,2.0,3.0,88,0.00,,,0.00,meteohub,2013-08-15 12:42:00,
2013-08-15 07:47:00,62.1,58.5,21.85,West,270,1.0,3.0,88,0.00,,,0.00,meteohub,2013-08-15 12:47:00,
2013-08-15 07:52:00,62.8,58.5,21.84,West,270,3.0,3.0,86,0.00,,,0.00,meteohub,2013-08-15 12:52:00,
2013-08-15 07:57:00,63.1,58.6,21.84,SSW,203,2.0,3.0,85,0.00,,,0.00,meteohub,2013-08-15 12:57:00,
2013-08-15 08:02:00,63.9,59.0,21.85,NW,315,3.0,4.0,84,0.00,,,0.00,meteohub,2013-08-15 13:02:00,
2013-08-15 08:07:00,64.0,58.8,21.84,North,0,2.0,4.0,83,0.00,,,0.00,meteohub,2013-08-15 13:07:00,
2013-08-15 08:12:00,64.8,59.9,21.84,East,90,0.0,4.0,84,0.00,,,0.00,meteohub,2013-08-15 13:12:00,
2013-08-15 08:17:00,65.5,60.4,21.84,North,0,2.0,3.0,84,0.00,,,0.00,meteohub,2013-08-15 13:17:00,
2013-08-15 08:22:00,65.8,60.6,21.84,NW,315,3.0,3.0,83,0.00,,,0.00,meteohub,2013-08-15 13:22:00,
2013-08-15 08:27:00,65.8,60.6,21.84,West,270,2.0,3.0,83,0.00,,,0.00,meteohub,2013-08-15 13:27:00,
2013-08-15 08:32:00,66.4,60.4,21.84,West,270,2.0,3.0,81,0.00,,,0.00,meteohub,2013-08-15 13:32:00,
2013-08-15 08:37:00,66.4,60.4,21.84,NE,45,3.0,3.0,81,0.00,,,0.00,meteohub,2013-08-15 13:37:00,
2013-08-15 08:42:00,67.3,61.2,21.84,NE,45,4.0,4.0,81,0.00,,,0.00,meteohub,2013-08-15 13:42:00,
2013-08-15 08:47:00,67.6,61.0,21.84,NW,315,3.0,4.0,79,0.00,,,0.00,meteohub,2013-08-15 13:47:00,
2013-08-15 08:52:00,67.6,60.6,21.84,West,270,3.0,4.0,78,0.00,,,0.00,meteohub,2013-08-15 13:52:00,
2013-08-15 08:57:00,68.7,60.8,21.84,West,270,4.0,4.0,76,0.00,,,0.00,meteohub,2013-08-15 13:57:00,
2013-08-15 09:02:00,69.4,60.1,21.84,North,0,3.0,4.0,72,0.00,,,0.00,meteohub,2013-08-15 14:02:00,
2013-08-15 09:07:00,69.4,60.1,21.84,North,0,3.0,4.0,72,0.00,,,0.00,meteohub,2013-08-15 14:07:00,
2013-08-15 09:12:00,72.1,59.7,21.84,NW,315,5.0,5.0,65,0.00,,,0.00,meteohub,2013-08-15 14:12:00,
2013-08-15 09:17:00,73.4,60.4,21.84,NE,45,3.0,5.0,64,0.00,,,0.00,meteohub,2013-08-15 14:17:00,
2013-08-15 09:22:00,74.5,60.1,21.84,West,270,2.0,5.0,61,0.00,,,0.00,meteohub,2013-08-15 14:22:00,
2013-08-15 09:27:00,72.7,58.5,21.84,West,270,1.0,5.0,61,0.00,,,0.00,meteohub,2013-08-15 14:27:00,
2013-08-15 09:32:00,73.9,60.1,21.85,SW,225,2.0,5.0,62,0.00,,,0.00,meteohub,2013-08-15 14:32:00,
2013-08-15 09:37:00,72.7,58.5,21.84,West,270,3.0,4.0,61,0.00,,,0.00,meteohub,2013-08-15 14:37:00,
2013-08-15 09:42:00,71.6,58.3,21.84,NW,315,2.0,3.0,63,0.00,,,0.00,meteohub,2013-08-15 14:42:00,
2013-08-15 09:47:00,72.1,59.4,21.84,SE,135,2.0,3.0,64,0.00,,,0.00,meteohub,2013-08-15 14:47:00,
2013-08-15 09:52:00,73.6,60.3,21.84,West,270,2.0,3.0,63,0.00,,,0.00,meteohub,2013-08-15 14:52:00,
2013-08-15 09:57:00,73.4,59.5,21.84,East,90,2.0,3.0,62,0.00,,,0.00,meteohub,2013-08-15 14:57:00,
2013-08-15 10:02:00,72.7,57.0,21.84,NE,45,4.0,5.0,58,0.00,,,0.00,meteohub,2013-08-15 15:02:00,
2013-08-15 10:07:00,72.3,57.2,21.84,SE,135,3.0,5.0,59,0.00,,,0.00,meteohub,2013-08-15 15:07:00,
2013-08-15 10:12:00,72.3,57.2,21.84,SW,225,3.0,5.0,59,0.00,,,0.00,meteohub,2013-08-15 15:12:00,
2013-08-15 10:17:00,72.1,57.0,21.84,North,0,4.0,4.0,59,0.00,,,0.00,meteohub,2013-08-15 15:17:00,
2013-08-15 10:22:00,72.1,57.0,21.84,NE,45,3.0,4.0,59,0.00,,,0.00,meteohub,2013-08-15 15:22:00,
2013-08-15 10:27:00,72.3,57.7,21.85,East,90,2.0,4.0,60,0.00,,,0.00,meteohub,2013-08-15 15:27:00,
2013-08-15 10:32:00,73.2,58.1,21.85,East,90,4.0,4.0,59,0.00,,,0.00,meteohub,2013-08-15 15:32:00,
2013-08-15 10:37:00,73.0,55.9,21.85,SE,135,4.0,4.0,55,0.00,,,0.00,meteohub,2013-08-15 15:37:00,
2013-08-15 10:42:00,73.8,56.7,21.85,SSE,158,2.0,8.0,55,0.00,,,0.00,meteohub,2013-08-15 15:42:00,
2013-08-15 10:47:00,75.6,57.2,21.85,East,90,2.0,8.0,53,0.00,,,0.00,meteohub,2013-08-15 15:47:00,
2013-08-15 10:52:00,75.9,57.0,21.85,East,90,2.0,8.0,52,0.00,,,0.00,meteohub,2013-08-15 15:52:00,
2013-08-15 10:57:00,76.1,57.2,21.85,SE,135,3.0,4.0,52,0.00,,,0.00,meteohub,2013-08-15 15:57:00,
2013-08-15 11:02:00,77.2,57.7,21.86,SE,135,3.0,4.0,51,0.00,,,0.00,meteohub,2013-08-15 16:02:00,
2013-08-15 11:07:00,78.6,58.5,21.86,SE,135,2.0,4.0,50,0.00,,,0.00,meteohub,2013-08-15 16:07:00,
2013-08-15 11:12:00,79.2,55.9,21.86,NE,45,2.0,4.0,45,0.00,,,0.00,meteohub,2013-08-15 16:12:00,
2013-08-15 11:17:00,79.5,55.0,21.86,East,90,6.0,6.0,43,0.00,,,0.00,meteohub,2013-08-15 16:17:00,
2013-08-15 11:21:00,78.8,53.8,21.86,East,90,7.0,12.0,42,0.00,,,0.00,meteohub,2013-08-15 16:21:00,
2013-08-15 11:26:00,78.6,54.3,21.86,East,90,8.0,12.0,43,0.00,,,0.00,meteohub,2013-08-15 16:26:00,
2013-08-15 11:31:00,78.1,53.8,21.86,NE,45,3.0,12.0,43,0.00,,,0.00,meteohub,2013-08-15 16:31:00,
2013-08-15 11:36:00,79.0,54.0,21.86,East,90,4.0,11.0,42,0.00,,,0.00,meteohub,2013-08-15 16:36:00,
2013-08-15 11:41:00,78.8,53.8,21.86,SE,135,11.0,11.0,42,0.00,,,0.00,meteohub,2013-08-15 16:41:00,
2013-08-15 11:46:00,76.5,54.7,21.86,SE,135,5.0,11.0,47,0.00,,,0.00,meteohub,2013-08-15 16:46:00,
2013-08-15 11:51:00,76.3,55.8,21.86,West,270,2.0,11.0,49,0.00,,,0.00,meteohub,2013-08-15 16:51:00,
2013-08-15 11:56:00,76.6,56.1,21.86,East,90,5.0,11.0,49,0.00,,,0.00,meteohub,2013-08-15 16:56:00,
2013-08-15 12:01:00,75.9,53.6,21.86,North,0,2.0,8.0,46,0.00,,,0.00,meteohub,2013-08-15 17:01:00,
2013-08-15 12:06:00,78.8,55.0,21.86,NE,45,4.0,7.0,44,0.00,,,0.00,meteohub,2013-08-15 17:06:00,
2013-08-15 12:11:00,79.7,54.0,21.87,East,90,3.0,7.0,41,0.00,,,0.00,meteohub,2013-08-15 17:11:00,
2013-08-15 12:16:00,79.2,53.4,21.86,NE,45,5.0,5.0,41,0.00,,,0.00,meteohub,2013-08-15 17:16:00,
2013-08-15 12:21:00,78.3,54.5,21.87,North,0,3.0,6.0,44,0.00,,,0.00,meteohub,2013-08-15 17:21:00,
2013-08-15 12:26:00,77.7,54.1,21.87,North,0,4.0,6.0,44,0.00,,,0.00,meteohub,2013-08-15 17:26:00,
2013-08-15 12:31:00,77.2,53.6,21.87,SE,135,3.0,6.0,44,0.00,,,0.00,meteohub,2013-08-15 17:31:00,
2013-08-15 12:36:00,76.6,53.8,21.87,East,90,4.0,6.0,45,0.00,,,0.00,meteohub,2013-08-15 17:36:00,
2013-08-15 12:41:00,75.9,53.6,21.87,SE,135,4.0,6.0,46,0.00,,,0.00,meteohub,2013-08-15 17:41:00,
2013-08-15 12:46:00,75.9,53.6,21.87,SE,135,6.0,6.0,46,0.00,,,0.00,meteohub,2013-08-15 17:46:00,
2013-08-15 12:51:00,75.9,54.3,21.87,East,90,4.0,8.0,47,0.00,,,0.00,meteohub,2013-08-15 17:51:00,
2013-08-15 12:56:00,76.6,54.9,21.87,NE,45,2.0,8.0,47,0.00,,,0.00,meteohub,2013-08-15 17:56:00,
2013-08-15 13:01:00,79.2,55.4,21.87,SE,135,2.0,8.0,44,0.00,,,0.00,meteohub,2013-08-15 18:01:00,
2013-08-15 13:06:00,83.7,56.8,21.87,NE,45,6.0,6.0,40,0.00,,,0.00,meteohub,2013-08-15 18:06:00,
2013-08-15 13:11:00,82.2,53.4,21.88,SE,135,4.0,6.0,37,0.00,,,0.00,meteohub,2013-08-15 18:11:00,
2013-08-15 13:16:00,82.9,56.1,21.88,South,180,3.0,6.0,40,0.00,,,0.00,meteohub,2013-08-15 18:16:00,
2013-08-15 13:21:00,82.9,56.1,21.88,South,180,3.0,6.0,40,0.00,,,0.00,meteohub,2013-08-15 18:21:00,
2013-08-15 13:26:00,84.0,54.9,21.88,West,270,4.0,4.0,37,0.00,,,0.00,meteohub,2013-08-15 18:26:00,
2013-08-15 13:31:00,83.3,53.6,21.88,North,0,6.0,7.0,36,0.00,,,0.00,meteohub,2013-08-15 18:31:00,
2013-08-15 13:36:00,82.2,52.5,21.88,NW,315,2.0,10.0,36,0.00,,,0.00,meteohub,2013-08-15 18:36:00,
2013-08-15 13:41:00,83.8,53.2,21.89,South,180,5.0,10.0,35,0.00,,,0.00,meteohub,2013-08-15 18:41:00,
2013-08-15 13:46:00,82.8,53.1,21.89,North,0,4.0,10.0,36,0.00,,,0.00,meteohub,2013-08-15 18:46:00,
2013-08-15 13:51:00,83.8,54.0,21.89,NE,45,5.0,8.0,36,0.00,,,0.00,meteohub,2013-08-15 18:51:00,
2013-08-15 13:56:00,86.0,53.6,21.89,SE,135,7.0,10.0,33,0.00,,,0.00,meteohub,2013-08-15 18:56:00,
2013-08-15 14:01:00,84.9,50.9,21.88,SE,135,8.0,11.0,31,0.00,,,0.00,meteohub,2013-08-15 19:01:00,
2013-08-15 14:06:00,83.3,51.3,21.88,NE,45,4.0,14.0,33,0.00,,,0.00,meteohub,2013-08-15 19:06:00,
2013-08-15 14:11:00,81.7,48.9,21.89,ENE,68,3.0,14.0,32,0.00,,,0.00,meteohub,2013-08-15 19:11:00,
2013-08-15 14:16:00,82.2,53.4,21.89,West,270,4.0,14.0,37,0.00,,,0.00,meteohub,2013-08-15 19:16:00,
2013-08-15 14:21:00,82.8,55.9,21.89,North,0,5.0,8.0,40,0.00,,,0.00,meteohub,2013-08-15 19:21:00,
2013-08-15 14:26:00,83.5,56.7,21.89,North,0,7.0,9.0,40,0.00,,,0.00,meteohub,2013-08-15 19:26:00,
2013-08-15 14:31:00,83.7,54.0,21.89,SE,135,6.0,9.0,36,0.00,,,0.00,meteohub,2013-08-15 19:31:00,
2013-08-15 14:36:00,84.9,54.1,21.89,NE,45,8.0,11.0,35,0.00,,,0.00,meteohub,2013-08-15 19:36:00,
2013-08-15 14:41:00,83.1,54.1,21.89,North,0,4.0,11.0,37,0.00,,,0.00,meteohub,2013-08-15 19:41:00,
2013-08-15 14:46:00,84.4,53.8,21.89,ESE,113,2.0,9.0,35,0.00,,,0.00,meteohub,2013-08-15 19:46:00,
2013-08-15 14:51:00,86.2,51.1,21.89,NE,45,7.0,9.0,30,0.00,,,0.00,meteohub,2013-08-15 19:51:00,
2013-08-15 14:56:00,82.9,51.6,21.89,WSW,248,7.0,9.0,34,0.00,,,0.00,meteohub,2013-08-15 19:56:00,
2013-08-15 15:01:00,83.1,52.7,21.89,South,180,3.0,10.0,35,0.00,,,0.00,meteohub,2013-08-15 20:01:00,
2013-08-15 15:06:00,83.1,52.7,21.90,South,180,3.0,10.0,35,0.00,,,0.00,meteohub,2013-08-15 20:06:00,
2013-08-15 15:11:00,83.3,52.9,21.90,East,90,5.0,10.0,35,0.00,,,0.00,meteohub,2013-08-15 20:11:00,
2013-08-15 15:16:00,83.7,53.1,21.90,SE,135,6.0,6.0,35,0.00,,,0.00,meteohub,2013-08-15 20:16:00,
2013-08-15 15:21:00,83.8,54.0,21.90,NE,45,9.0,10.0,36,0.00,,,0.00,meteohub,2013-08-15 20:21:00,
2013-08-15 15:27:00,85.1,54.3,21.90,East,90,7.0,10.0,35,0.00,,,0.00,meteohub,2013-08-15 20:27:00,
2013-08-15 15:32:00,82.9,50.9,21.90,East,90,5.0,11.0,33,0.00,,,0.00,meteohub,2013-08-15 20:32:00,
2013-08-15 15:37:00,80.6,50.4,21.90,SW,225,2.0,11.0,35,0.00,,,0.00,meteohub,2013-08-15 20:37:00,
2013-08-15 15:42:00,79.9,50.5,21.90,East,90,8.0,11.0,36,0.00,,,0.00,meteohub,2013-08-15 20:42:00,
2013-08-15 15:47:00,79.7,51.1,21.90,North,0,3.0,8.0,37,0.00,,,0.00,meteohub,2013-08-15 20:47:00,
2013-08-15 15:52:00,80.6,52.0,21.90,NE,45,9.0,9.0,37,0.00,,,0.00,meteohub,2013-08-15 20:52:00,
2013-08-15 15:57:00,81.3,52.5,21.91,South,180,4.0,9.0,37,0.00,,,0.00,meteohub,2013-08-15 20:57:00,
2013-08-15 16:01:00,84.2,52.0,21.90,SW,225,4.0,9.0,33,0.00,,,0.00,meteohub,2013-08-15 21:01:00,
2013-08-15 16:06:00,82.6,52.2,21.91,NE,45,4.0,9.0,35,0.00,,,0.00,meteohub,2013-08-15 21:06:00,
2013-08-15 16:11:00,84.4,52.9,21.91,NE,45,5.0,12.0,34,0.00,,,0.00,meteohub,2013-08-15 21:11:00,
2013-08-15 16:16:00,85.5,54.0,21.91,North,0,11.0,12.0,34,0.00,,,0.00,meteohub,2013-08-15 21:16:00,
2013-08-15 16:21:00,84.2,52.7,21.91,East,90,11.0,12.0,34,0.00,,,0.00,meteohub,2013-08-15 21:21:00,
2013-08-15 16:27:00,84.2,52.0,21.91,NE,45,8.0,12.0,33,0.00,,,0.00,meteohub,2013-08-15 21:27:00,
2013-08-15 16:31:00,82.8,53.1,21.91,NE,45,8.0,12.0,36,0.00,,,0.00,meteohub,2013-08-15 21:31:00,
2013-08-15 16:37:00,81.7,52.2,21.91,NE,45,11.0,12.0,36,0.00,,,0.00,meteohub,2013-08-15 21:37:00,
2013-08-15 16:42:00,81.0,51.4,21.91,West,270,3.0,11.0,36,0.00,,,0.00,meteohub,2013-08-15 21:42:00,
2013-08-15 16:47:00,82.0,53.2,21.91,NNE,23,6.0,11.0,37,0.00,,,0.00,meteohub,2013-08-15 21:47:00,
2013-08-15 16:52:00,82.8,54.5,21.91,North,0,2.0,11.0,38,0.00,,,0.00,meteohub,2013-08-15 21:52:00,
2013-08-15 16:57:00,84.2,52.0,21.91,North,0,5.0,8.0,33,0.00,,,0.00,meteohub,2013-08-15 21:57:00,
2013-08-15 17:02:00,83.3,52.9,21.91,North,0,8.0,10.0,35,0.00,,,0.00,meteohub,2013-08-15 22:02:00,
2013-08-15 17:07:00,84.0,54.1,21.90,North,0,8.0,10.0,36,0.00,,,0.00,meteohub,2013-08-15 22:07:00,
2013-08-15 17:12:00,84.4,52.9,21.90,NE,45,8.0,10.0,34,0.00,,,0.00,meteohub,2013-08-15 22:12:00,
2013-08-15 17:17:00,84.7,53.2,21.91,NW,315,3.0,10.0,34,0.00,,,0.00,meteohub,2013-08-15 22:17:00,
2013-08-15 17:22:00,86.9,54.3,21.91,NW,315,8.0,9.0,33,0.00,,,0.00,meteohub,2013-08-15 22:22:00,
2013-08-15 17:27:00,85.5,52.2,21.90,SE,135,3.0,8.0,32,0.00,,,0.00,meteohub,2013-08-15 22:27:00,
2013-08-15 17:32:00,84.6,53.1,21.90,NNE,23,2.0,8.0,34,0.00,,,0.00,meteohub,2013-08-15 22:32:00,
2013-08-15 17:37:00,83.7,52.3,21.90,North,0,4.0,8.0,34,0.00,,,0.00,meteohub,2013-08-15 22:37:00,
2013-08-15 17:42:00,80.6,49.6,21.90,South,180,6.0,8.0,34,0.00,,,0.00,meteohub,2013-08-15 22:42:00,
2013-08-15 17:47:00,81.7,53.6,21.90,South,180,2.0,10.0,38,0.00,,,0.00,meteohub,2013-08-15 22:47:00,
2013-08-15 17:52:00,83.3,52.9,21.91,North,0,8.0,10.0,35,0.00,,,0.00,meteohub,2013-08-15 22:52:00,
2013-08-15 17:57:00,81.0,50.0,21.91,North,0,5.0,10.0,34,0.00,,,0.00,meteohub,2013-08-15 22:57:00,
2013-08-15 18:02:00,81.3,51.1,21.90,NNE,23,5.0,11.0,35,0.00,,,0.00,meteohub,2013-08-15 23:02:00,
2013-08-15 18:07:00,82.6,52.9,21.90,NW,315,2.0,11.0,36,0.00,,,0.00,meteohub,2013-08-15 23:07:00,
2013-08-15 18:12:00,82.2,51.1,21.90,NE,45,7.0,7.0,34,0.00,,,0.00,meteohub,2013-08-15 23:12:00,
2013-08-15 18:17:00,82.0,52.5,21.90,SE,135,1.0,8.0,36,0.00,,,0.00,meteohub,2013-08-15 23:17:00,
2013-08-15 18:22:00,82.0,54.0,21.90,East,90,5.0,8.0,38,0.00,,,0.00,meteohub,2013-08-15 23:22:00,
2013-08-15 18:27:00,80.6,52.0,21.90,SE,135,2.0,7.0,37,0.00,,,0.00,meteohub,2013-08-15 23:27:00,
2013-08-15 18:32:00,79.0,52.0,21.90,SE,135,1.0,5.0,39,0.00,,,0.00,meteohub,2013-08-15 23:32:00,
2013-08-15 18:37:00,77.5,52.0,21.90,NE,45,2.0,5.0,41,0.00,,,0.00,meteohub,2013-08-15 23:37:00,
2013-08-15 18:42:00,76.1,52.0,21.89,SE,135,2.0,4.0,43,0.00,,,0.00,meteohub,2013-08-15 23:42:00,
2013-08-15 18:47:00,75.4,52.5,21.90,NW,315,2.0,4.0,45,0.00,,,0.00,meteohub,2013-08-15 23:47:00,
2013-08-15 18:52:00,74.7,53.1,21.90,West,270,1.0,4.0,47,0.00,,,0.00,meteohub,2013-08-15 23:52:00,
2013-08-15 18:57:00,74.1,53.2,21.90,North,0,1.0,4.0,48,0.00,,,0.00,meteohub,2013-08-15 23:57:00,
2013-08-15 19:02:00,73.8,54.5,21.89,West,270,1.0,2.0,51,0.00,,,0.00,meteohub,2013-08-16 00:02:00,
2013-08-15 19:07:00,73.0,55.4,21.90,West,270,0.0,2.0,54,0.00,,,0.00,meteohub,2013-08-16 00:07:00,
2013-08-15 19:12:00,72.1,55.6,21.89,SW,225,0.0,2.0,56,0.00,,,0.00,meteohub,2013-08-16 00:12:00,
2013-08-15 19:17:00,71.6,56.1,21.89,SW,225,1.0,1.0,58,0.00,,,0.00,meteohub,2013-08-16 00:17:00,
2013-08-15 19:22:00,71.6,56.1,21.89,SW,225,1.0,1.0,58,0.00,,,0.00,meteohub,2013-08-16 00:22:00,
2013-08-15 19:27:00,69.8,55.8,21.89,SW,225,0.0,1.0,61,0.00,,,0.00,meteohub,2013-08-16 00:27:00,
2013-08-15 19:32:00,69.4,56.7,21.89,West,270,1.0,1.0,64,0.00,,,0.00,meteohub,2013-08-16 00:32:00,
2013-08-15 19:37:00,68.9,56.7,21.89,West,270,0.0,1.0,65,0.00,,,0.00,meteohub,2013-08-16 00:37:00,
2013-08-15 19:42:00,68.5,56.3,21.89,West,270,0.0,1.0,65,0.00,,,0.00,meteohub,2013-08-16 00:42:00,
2013-08-15 19:47:00,68.2,56.3,21.89,West,270,0.0,1.0,66,0.00,,,0.00,meteohub,2013-08-16 00:47:00,
2013-08-15 19:52:00,67.6,56.3,21.88,West,270,0.0,0.0,67,0.00,,,0.00,meteohub,2013-08-16 00:52:00,
2013-08-15 19:57:00,67.1,56.1,21.88,West,270,0.0,0.0,68,0.00,,,0.00,meteohub,2013-08-16 00:57:00,
2013-08-15 20:02:00,66.9,56.8,21.89,West,270,0.0,0.0,70,0.00,,,0.00,meteohub,2013-08-16 01:02:00,
2013-08-15 20:07:00,66.4,56.3,21.89,West,270,0.0,1.0,70,0.00,,,0.00,meteohub,2013-08-16 01:07:00,
2013-08-15 20:11:00,65.8,56.5,21.88,West,270,0.0,1.0,72,0.00,,,0.00,meteohub,2013-08-16 01:11:00,
2013-08-15 20:16:00,65.5,56.7,21.88,SW,225,0.0,1.0,73,0.00,,,0.00,meteohub,2013-08-16 01:16:00,
2013-08-15 20:22:00,65.1,57.0,21.88,SW,225,1.0,1.0,75,0.00,,,0.00,meteohub,2013-08-16 01:22:00,
2013-08-15 20:27:00,64.6,56.5,21.88,West,270,0.0,1.0,75,0.00,,,0.00,meteohub,2013-08-16 01:27:00,
2013-08-15 20:32:00,64.4,56.7,21.88,West,270,0.0,1.0,76,0.00,,,0.00,meteohub,2013-08-16 01:32:00,
2013-08-15 20:37:00,64.0,57.0,21.88,West,270,2.0,2.0,78,0.00,,,0.00,meteohub,2013-08-16 01:37:00,
2013-08-15 20:42:00,63.9,56.8,21.88,West,270,1.0,2.0,78,0.00,,,0.00,meteohub,2013-08-16 01:42:00,
2013-08-15 20:47:00,63.7,57.0,21.88,West,270,0.0,2.0,79,0.00,,,0.00,meteohub,2013-08-16 01:47:00,
2013-08-15 20:52:00,63.3,56.7,21.88,West,270,0.0,2.0,79,0.00,,,0.00,meteohub,2013-08-16 01:52:00,
2013-08-15 20:57:00,63.1,56.5,21.88,West,270,1.0,1.0,79,0.00,,,0.00,meteohub,2013-08-16 01:57:00,
2013-08-15 21:02:00,63.1,56.8,21.88,West,270,0.0,1.0,80,0.00,,,0.00,meteohub,2013-08-16 02:02:00,
2013-08-15 21:07:00,63.1,56.8,21.87,West,270,0.0,1.0,80,0.00,,,0.00,meteohub,2013-08-16 02:07:00,
2013-08-15 21:12:00,62.6,56.7,21.87,West,270,0.0,1.0,81,0.00,,,0.00,meteohub,2013-08-16 02:12:00,
2013-08-15 21:17:00,62.4,56.8,21.87,West,270,0.0,1.0,82,0.00,,,0.00,meteohub,2013-08-16 02:17:00,
2013-08-15 21:22:00,62.2,57.4,21.87,West,270,0.0,1.0,84,0.00,,,0.00,meteohub,2013-08-16 02:22:00,
2013-08-15 21:27:00,62.2,57.4,21.87,West,270,0.0,1.0,84,0.00,,,0.00,meteohub,2013-08-16 02:27:00,
2013-08-15 21:32:00,62.1,57.6,21.87,West,270,0.0,1.0,85,0.00,,,0.00,meteohub,2013-08-16 02:32:00,
2013-08-15 21:37:00,61.7,57.2,21.87,West,270,0.0,0.0,85,0.00,,,0.00,meteohub,2013-08-16 02:37:00,
2013-08-15 21:42:00,61.3,56.8,21.87,West,270,0.0,0.0,85,0.00,,,0.00,meteohub,2013-08-16 02:42:00,
2013-08-15 21:47:00,61.2,57.0,21.87,West,270,0.0,0.0,86,0.00,,,0.00,meteohub,2013-08-16 02:47:00,
2013-08-15 21:52:00,61.0,56.8,21.87,West,270,0.0,0.0,86,0.00,,,0.00,meteohub,2013-08-16 02:52:00,
2013-08-15 21:57:00,61.0,57.0,21.87,West,270,0.0,0.0,87,0.00,,,0.00,meteohub,2013-08-16 02:57:00,
2013-08-15 22:02:00,60.8,56.8,21.87,West,270,0.0,0.0,87,0.00,,,0.00,meteohub,2013-08-16 03:02:00,
2013-08-15 22:07:00,60.6,57.0,21.87,West,270,0.0,0.0,88,0.00,,,0.00,meteohub,2013-08-16 03:07:00,
2013-08-15 22:12:00,60.4,56.8,21.86,West,270,0.0,0.0,88,0.00,,,0.00,meteohub,2013-08-16 03:12:00,
2013-08-15 22:17:00,60.3,57.0,21.86,West,270,0.0,0.0,89,0.00,,,0.00,meteohub,2013-08-16 03:17:00,
2013-08-15 22:22:00,60.1,56.8,21.87,West,270,0.0,0.0,89,0.00,,,0.00,meteohub,2013-08-16 03:22:00,
2013-08-15 22:27:00,60.1,57.2,21.87,West,270,0.0,0.0,90,0.00,,,0.00,meteohub,2013-08-16 03:27:00,
2013-08-15 22:32:00,60.1,57.2,21.86,West,270,0.0,0.0,90,0.00,,,0.00,meteohub,2013-08-16 03:32:00,
2013-08-15 22:37:00,59.9,57.0,21.87,West,270,0.0,0.0,90,0.00,,,0.00,meteohub,2013-08-16 03:37:00,
2013-08-15 22:42:00,59.7,56.8,21.86,West,270,0.0,0.0,90,0.00,,,0.00,meteohub,2013-08-16 03:42:00,
2013-08-15 22:47:00,59.5,56.7,21.86,West,270,0.0,0.0,90,0.00,,,0.00,meteohub,2013-08-16 03:47:00,
2013-08-15 22:52:00,59.5,56.7,21.86,West,270,0.0,0.0,90,0.00,,,0.00,meteohub,2013-08-16 03:52:00,
2013-08-15 22:57:00,59.2,56.3,21.86,West,270,0.0,0.0,90,0.00,,,0.00,meteohub,2013-08-16 03:57:00,
2013-08-15 23:01:00,59.2,56.5,21.86,West,270,0.0,0.0,91,0.00,,,0.00,meteohub,2013-08-16 04:01:00,
2013-08-15 23:02:00,59.2,56.5,21.86,West,270,0.0,0.0,91,0.00,,,0.00,meteohub,2013-08-16 04:02:00,
2013-08-15 23:07:00,59.2,56.5,21.86,West,270,0.0,0.0,91,0.00,,,0.00,meteohub,2013-08-16 04:07:00,
2013-08-15 23:12:00,59.0,56.3,21.86,NW,315,1.0,2.0,91,0.00,,,0.00,meteohub,2013-08-16 04:12:00,
2013-08-15 23:17:00,59.2,56.8,21.86,West,270,0.0,2.0,92,0.00,,,0.00,meteohub,2013-08-16 04:17:00,
2013-08-15 23:22:00,59.2,56.8,21.86,NW,315,0.0,2.0,92,0.00,,,0.00,meteohub,2013-08-16 04:22:00,
2013-08-15 23:27:00,59.0,56.7,21.85,NW,315,0.0,1.0,92,0.00,,,0.00,meteohub,2013-08-16 04:27:00,
2013-08-15 23:32:00,58.8,56.8,21.85,NW,315,0.0,1.0,93,0.00,,,0.00,meteohub,2013-08-16 04:32:00,
2013-08-15 23:37:00,58.6,56.7,21.86,NW,315,0.0,1.0,93,0.00,,,0.00,meteohub,2013-08-16 04:37:00,
2013-08-15 23:42:00,58.6,56.7,21.85,NW,315,0.0,0.0,93,0.00,,,0.00,meteohub,2013-08-16 04:42:00,
2013-08-15 23:47:00,58.6,56.7,21.85,NW,315,0.0,0.0,93,0.00,,,0.00,meteohub,2013-08-16 04:47:00,
2013-08-15 23:52:00,58.6,56.7,21.86,North,0,0.0,2.0,93,0.00,,,0.00,meteohub,2013-08-16 04:52:00,
2013-08-15 23:57:00,58.6,56.7,21.85,West,270,0.0,2.0,93,0.00,,,0.00,meteohub,2013-08-16 04:57:00,